CW2313 Weather Reports


Display with metric or nautical units.
time (UTC)temp
F
wind
direction
speed
MPH
gust
MPH
rain 1hr
in
rain 24hr
in
rain mn
in
humidity
%
barometer
mb
20260508164544 49 210 0.0 0.0 0.00 0.00 0.00 45 1018.9
20260508163040 49 192 0.0 0.0 0.00 0.00 0.00 45 1018.9
20260508161521 48 225 0.0 9.0 0.00 0.00 0.00 45 1018.3
20260508160017 47 225 0.0 0.0 0.00 0.00 0.00 47 1018.7
20260508154559 47 222 0.0 2.0 0.00 0.00 0.00 46 1018.6
20260508153058 47 243 0.0 3.0 0.00 0.00 0.00 41 1018.6
20260508151539 47 230 0.0 1.0 0.00 0.00 0.00 40 1018.6
20260508150038 47 216 0.0 3.0 0.00 0.00 0.00 40 1018.5
20260508144527 47 225 0.0 9.0 0.00 0.00 0.00 41 1018.5
20260508143029 47 221 0.0 0.0 0.00 0.00 0.00 41 1018.3
20260508141522 46 243 0.0 4.0 0.00 0.00 0.00 43 1018.2
20260508140032 45 177 0.0 0.0 0.00 0.00 0.00 45 1018.1
20260508134516 44 235 0.0 0.0 0.00 0.00 0.00 48 1018.1
20260508133014 43 218 0.0 0.0 0.00 0.00 0.00 51 1018.0
20260508131512 43 258 0.0 0.0 0.00 0.00 0.00 47 1018.2
20260508130010 43 201 0.0 1.0 0.00 0.00 0.00 41 1018.1
20260508124553 44 211 0.0 0.0 0.00 0.00 0.00 39 1018.0
20260508123057 44 217 0.0 0.0 0.00 0.00 0.00 36 1017.9
20260508121538 45 201 0.0 0.0 0.00 0.00 0.00 34 1017.9
20260508120031 44 237 0.0 1.0 0.00 0.00 0.00 34 1017.8
20260508114513 44 212 0.0 1.0 0.00 0.00 0.00 35 1017.7
20260508113016 45 218 0.0 5.0 0.00 0.00 0.00 35 1017.8
20260508111602 44 216 0.0 0.0 0.00 0.00 0.00 35 1017.7
20260508110056 44 188 0.0 0.0 0.00 0.00 0.00 37 1017.6
20260508104538 44 198 0.0 0.0 0.00 0.00 0.00 36 1017.6
20260508103041 44 224 0.0 0.0 0.00 0.00 0.00 36 1017.6
20260508101515 44 199 0.0 0.0 0.00 0.00 0.00 34 1017.6
20260508100015 45 202 0.0 0.0 0.00 0.00 0.00 34 1017.6
20260508094603 45 207 0.0 0.0 0.00 0.00 0.00 30 1017.6
20260508093057 45 227 0.0 0.0 0.00 0.00 0.00 28 1017.6
20260508091550 45 221 0.0 0.0 0.00 0.00 0.00 26 1017.6
20260508090051 45 198 0.0 3.0 0.00 0.00 0.00 27 1017.6
20260508084516 45 215 0.0 0.0 0.00 0.00 0.00 34 1017.7
20260508083015 45 202 0.0 0.0 0.00 0.00 0.00 36 1017.7
20260508081608 45 200 0.0 0.0 0.00 0.00 0.00 39 1017.7
20260508080055 45 198 0.0 0.0 0.00 0.00 0.00 41 1017.7
20260508074537 46 212 0.0 0.0 0.00 0.00 0.00 40 1017.8
20260508073044 46 195 0.0 0.0 0.00 0.00 0.00 40 1017.8
20260508071523 46 202 0.0 0.0 0.00 0.00 0.00 41 1018.1
20260508070018 47 212 0.0 0.0 0.00 0.00 0.00 43 1018.1
20260508064600 47 223 0.0 0.0 0.00 0.00 0.00 43 1017.9
20260508063100 48 197 0.0 0.0 0.00 0.00 0.00 42 1018.0
20260508061545 48 203 0.0 0.0 0.00 0.00 0.00 40 1017.9
20260508060044 48 177 0.0 0.0 0.00 0.00 0.00 42 1017.9
20260508054530 48 199 0.0 0.0 0.00 0.00 0.00 41 1017.9
20260508053025 48 198 0.0 0.0 0.00 0.00 0.00 43 1017.9
20260508051506 49 211 0.0 0.0 0.00 0.00 0.00 39 1017.8
20260508050005 49 204 0.0 0.0 0.00 0.00 0.00 41 1017.9
20260508044609 49 204 0.0 0.0 0.00 0.00 0.00 37 1017.9
20260508043048 48 204 0.0 0.0 0.00 0.00 0.00 39 1017.9
20260508041548 47 204 0.0 0.0 0.00 0.00 0.00 41 1018.0
20260508040034 47 204 0.0 0.0 0.00 0.00 0.00 47 1018.0
20260508034535 47 204 0.0 0.0 0.00 0.00 0.00 48 1018.0
20260508033011 48 204 0.0 0.0 0.00 0.00 0.00 48 1017.9
20260508031510 49 204 0.0 0.0 0.00 0.00 0.00 46 1017.8
20260508030107 50 204 0.0 0.0 0.00 0.00 0.00 43 1017.8
20260508024618 51 204 0.0 0.0 0.00 0.00 0.00 43 1017.7
20260508023039 52 203 0.0 0.0 0.00 0.00 0.00 43 1017.6
20260508021536 53 203 0.0 0.0 0.00 0.00 0.00 42 1017.7
20260508020016 54 206 0.0 0.0 0.00 0.00 0.00 38 1017.7
20260508014522 54 214 0.0 0.0 0.00 0.00 0.00 37 1017.7
20260508013108 54 214 0.0 0.0 0.00 0.00 0.00 37 1017.7
20260508011603 55 199 0.0 0.0 0.00 0.00 0.00 34 1017.8
20260508010041 56 210 0.0 0.0 0.00 0.00 0.00 32 1017.9
20260508004540 57 212 0.0 0.0 0.00 0.00 0.00 33 1017.9
20260508003023 57 213 0.0 0.0 0.00 0.00 0.00 29 1018.0
20260508001539 58 214 0.0 0.0 0.00 0.00 0.00 35 1018.1
20260508000006 58 214 0.0 0.0 0.00 0.00 0.00 34 1018.0
20260507234504 59 233 0.0 0.0 0.00 0.00 0.00 33 1018.1
20260507233053 59 198 0.0 0.0 0.00 0.00 0.00 34 1018.0
20260507231555 59 210 0.0 0.0 0.00 0.00 0.00 37 1018.1
20260507230054 60 177 0.0 0.0 0.00 0.00 0.00 38 1018.1
20260507224552 59 157 0.0 0.0 0.00 0.00 0.00 40 1018.2
20260507223050 58 200 0.0 0.0 0.00 0.00 0.00 33 1018.4
20260507221547 58 223 0.0 0.0 0.00 0.00 0.00 39 1018.4
20260507220046 58 189 0.0 0.0 0.00 0.00 0.00 36 1018.6
20260507214548 57 298 0.0 0.0 0.00 0.00 0.00 38 1018.7
20260507213035 57 204 0.0 0.0 0.00 0.00 0.00 33 1018.8
20260507211542 57 218 0.0 0.0 0.00 0.00 0.00 38 1018.8
20260507210009 57 204 0.0 0.0 0.00 0.00 0.00 41 1018.8
20260507204508 56 177 0.0 1.0 0.00 0.00 0.00 46 1018.8
20260507203049 56 127 0.0 2.0 0.00 0.00 0.00 41 1018.9
20260507201549 55 153 0.0 0.0 0.00 0.00 0.00 48 1019.0
20260507200033 55 172 0.0 6.0 0.00 0.00 0.00 44 1019.0
20260507194525 55 207 0.0 0.0 0.00 0.00 0.00 42 1018.9
20260507193006 54 206 0.0 0.0 0.00 0.00 0.00 43 1018.9
20260507191504 54 189 0.0 0.0 0.00 0.00 0.00 42 1018.9
20260507190043 52 237 0.0 0.0 0.00 0.00 0.00 45 1019.0
20260507184542 52 172 0.0 2.0 0.00 0.00 0.00 44 1019.0
20260507183023 51 212 0.0 3.0 0.00 0.00 0.00 46 1019.1
20260507181521 51 172 0.0 0.0 0.00 0.00 0.00 53 1019.1
20260507180100 50 139 0.0 0.0 0.00 0.00 0.00 57 1019.0
20260507174602 49 202 0.0 6.0 0.00 0.00 0.00 57 1018.9
20260507173055 49 265 0.0 0.0 0.00 0.00 0.00 62 1019.0
20260507171538 48 225 0.0 5.0 0.00 0.00 0.00 62 1018.9